TimeCST,TemperatureF,Dew PointF,Humidity,Sea Level PressureIn,VisibilityMPH,Wind Direction,Wind SpeedMPH,Gust SpeedMPH,PrecipitationIn,Events,Conditions,WindDirDegrees,DateUTC
12:15 AM,62.6,60.8,94,29.80,4.0,Calm,Calm,-,N/A,,Mostly Cloudy,0,2013-12-03 06:15:00
12:35 AM,62.6,60.8,94,29.80,4.0,Calm,Calm,-,N/A,,Mostly Cloudy,0,2013-12-03 06:35:00
12:55 AM,62.6,60.8,94,29.80,4.0,South,3.5,-,0.02,Rain,Light Rain,180,2013-12-03 06:55:00
1:15 AM,64.4,60.8,88,29.80,2.5,Calm,Calm,-,0.02,Rain,Light Rain,0,2013-12-03 07:15:00
1:35 AM,64.4,60.8,88,29.79,3.0,Calm,Calm,-,0.02,,Overcast,0,2013-12-03 07:35:00
1:55 AM,64.4,60.8,88,29.79,5.0,South,4.6,-,0.02,,Mostly Cloudy,190,2013-12-03 07:55:00
2:15 AM,62.6,60.8,94,29.80,5.0,SSW,3.5,-,N/A,,Mostly Cloudy,200,2013-12-03 08:15:00
2:35 AM,64.4,60.8,88,29.80,7.0,South,4.6,-,N/A,Rain,Light Rain,190,2013-12-03 08:35:00
2:55 AM,64.4,60.8,88,29.79,7.0,South,3.5,-,N/A,,Overcast,180,2013-12-03 08:55:00
3:15 AM,64.4,60.8,88,29.79,7.0,South,3.5,-,N/A,,Overcast,170,2013-12-03 09:15:00
3:35 AM,64.4,60.8,88,29.78,5.0,Calm,Calm,-,N/A,,Overcast,0,2013-12-03 09:35:00
3:55 AM,64.4,60.8,88,29.77,5.0,South,4.6,-,N/A,,Overcast,170,2013-12-03 09:55:00
4:15 AM,64.4,60.8,88,29.77,5.0,South,6.9,-,N/A,,Overcast,190,2013-12-03 10:15:00
4:35 AM,64.4,62.6,94,29.77,5.0,SSW,5.8,-,N/A,,Overcast,200,2013-12-03 10:35:00
4:55 AM,64.4,62.6,94,29.77,4.0,SSW,5.8,-,N/A,,Overcast,210,2013-12-03 10:55:00
5:15 AM,64.4,62.6,94,29.77,5.0,SSW,5.8,-,N/A,,Overcast,200,2013-12-03 11:15:00
5:35 AM,64.4,62.6,94,29.77,3.0,SSW,4.6,-,N/A,,Overcast,200,2013-12-03 11:35:00
5:55 AM,64.4,62.6,94,29.78,4.0,SSW,5.8,-,N/A,,Overcast,210,2013-12-03 11:55:00
6:15 AM,64.4,62.6,94,29.78,4.0,South,4.6,-,N/A,,Overcast,170,2013-12-03 12:15:00
6:35 AM,64.4,60.8,88,29.78,0.8,Calm,Calm,-,N/A,,Overcast,0,2013-12-03 12:35:00
6:55 AM,64.4,60.8,88,29.79,0.8,Calm,Calm,-,N/A,,Overcast,0,2013-12-03 12:55:00
7:15 AM,62.6,60.8,94,29.79,0.5,Calm,Calm,-,N/A,Fog,Fog,0,2013-12-03 13:15:00
7:35 AM,64.4,60.8,88,29.80,0.5,Calm,Calm,-,N/A,Fog,Fog,0,2013-12-03 13:35:00
7:55 AM,64.4,62.6,94,29.81,2.5,Calm,Calm,-,N/A,,Overcast,0,2013-12-03 13:55:00
8:15 AM,64.4,62.6,94,29.82,5.0,South,4.6,-,N/A,,Overcast,180,2013-12-03 14:15:00
8:35 AM,66.2,64.4,94,29.82,7.0,Calm,Calm,-,N/A,,Overcast,0,2013-12-03 14:35:00
8:55 AM,66.2,64.4,94,29.82,7.0,South,4.6,-,N/A,,Overcast,170,2013-12-03 14:55:00
9:15 AM,66.2,64.4,94,29.82,10.0,South,4.6,-,N/A,,Overcast,180,2013-12-03 15:15:00
9:35 AM,69.8,66.2,88,29.83,10.0,SSW,8.1,-,N/A,,Overcast,200,2013-12-03 15:35:00
9:55 AM,69.8,64.4,83,29.83,10.0,South,8.1,-,N/A,,Mostly Cloudy,180,2013-12-03 15:55:00
10:15 AM,69.8,64.4,83,29.83,10.0,SSW,10.4,-,N/A,,Overcast,200,2013-12-03 16:15:00
10:35 AM,71.6,64.4,78,29.83,10.0,SSW,11.5,-,N/A,,Overcast,210,2013-12-03 16:35:00
10:55 AM,73.4,64.4,73,29.82,10.0,SSW,8.1,-,N/A,,Overcast,200,2013-12-03 16:55:00
11:15 AM,73.4,64.4,73,29.81,10.0,South,8.1,-,N/A,,Mostly Cloudy,170,2013-12-03 17:15:00
11:35 AM,73.4,64.4,73,29.80,10.0,SSW,5.8,-,N/A,,Scattered Clouds,200,2013-12-03 17:35:00
11:55 AM,75.2,64.4,69,29.79,10.0,South,4.6,-,N/A,,Mostly Cloudy,190,2013-12-03 17:55:00
12:15 PM,77.0,64.4,65,29.77,10.0,SSW,10.4,18.4,N/A,,Mostly Cloudy,200,2013-12-03 18:15:00
12:35 PM,77.0,62.6,61,29.77,10.0,SW,9.2,21.9,0.01,,Mostly Cloudy,220,2013-12-03 18:35:00
12:55 PM,78.8,62.6,57,29.76,10.0,SW,11.5,-,0.01,,Scattered Clouds,220,2013-12-03 18:55:00
1:15 PM,77.0,62.6,61,29.75,10.0,SSW,15.0,19.6,N/A,,Scattered Clouds,210,2013-12-03 19:15:00
1:35 PM,78.8,60.8,54,29.74,10.0,SSW,8.1,16.1,N/A,,Scattered Clouds,210,2013-12-03 19:35:00
1:55 PM,78.8,60.8,54,29.75,10.0,SSW,11.5,-,N/A,,Scattered Clouds,210,2013-12-03 19:55:00
2:15 PM,78.8,60.8,54,29.75,10.0,SW,9.2,-,N/A,,Scattered Clouds,220,2013-12-03 20:15:00
2:35 PM,78.8,60.8,54,29.74,10.0,SSW,10.4,17.3,N/A,,Scattered Clouds,210,2013-12-03 20:35:00
2:55 PM,77.0,60.8,57,29.74,10.0,SW,10.4,-,N/A,,Clear,220,2013-12-03 20:55:00
3:15 PM,77.0,60.8,57,29.73,10.0,South,9.2,-,N/A,,Clear,190,2013-12-03 21:15:00
3:35 PM,77.0,60.8,57,29.73,10.0,SSW,10.4,-,N/A,,Clear,210,2013-12-03 21:35:00
3:55 PM,77.0,60.8,57,29.73,10.0,SSW,9.2,-,N/A,,Scattered Clouds,210,2013-12-03 21:55:00
4:15 PM,77.0,60.8,57,29.74,10.0,SSW,10.4,-,N/A,,Scattered Clouds,210,2013-12-03 22:15:00
4:35 PM,77.0,60.8,57,29.75,10.0,SSW,10.4,-,N/A,,Clear,210,2013-12-03 22:35:00
4:55 PM,75.2,60.8,61,29.75,10.0,SSW,10.4,-,N/A,,Clear,210,2013-12-03 22:55:00
5:15 PM,73.4,60.8,65,29.76,10.0,SSW,9.2,-,N/A,,Clear,200,2013-12-03 23:15:00
5:35 PM,71.6,60.8,69,29.76,10.0,South,3.5,-,N/A,,Clear,190,2013-12-03 23:35:00
5:55 PM,69.8,62.6,78,29.77,10.0,South,5.8,-,N/A,,Clear,190,2013-12-03 23:55:00
6:15 PM,69.8,62.6,78,29.78,10.0,South,4.6,-,N/A,,Clear,170,2013-12-04 00:15:00
6:35 PM,68.0,62.6,83,29.78,10.0,South,5.8,-,N/A,,Clear,180,2013-12-04 00:35:00
6:55 PM,69.8,62.6,78,29.78,10.0,South,5.8,-,N/A,,Scattered Clouds,170,2013-12-04 00:55:00
7:15 PM,69.8,64.4,83,29.79,10.0,South,6.9,-,N/A,,Mostly Cloudy,170,2013-12-04 01:15:00
7:35 PM,69.8,64.4,83,29.79,10.0,South,8.1,-,N/A,,Scattered Clouds,180,2013-12-04 01:35:00
7:55 PM,69.8,64.4,83,29.80,10.0,South,8.1,-,N/A,,Scattered Clouds,190,2013-12-04 01:55:00
8:15 PM,69.8,64.4,83,29.80,10.0,South,8.1,-,N/A,,Mostly Cloudy,180,2013-12-04 02:15:00
8:35 PM,69.8,66.2,88,29.81,10.0,South,8.1,-,N/A,,Overcast,180,2013-12-04 02:35:00
8:55 PM,69.8,66.2,88,29.82,10.0,South,6.9,-,N/A,,Overcast,180,2013-12-04 02:55:00
9:15 PM,69.8,66.2,88,29.82,10.0,South,9.2,-,N/A,,Overcast,190,2013-12-04 03:15:00
9:35 PM,69.8,64.4,83,29.83,10.0,South,9.2,-,N/A,,Mostly Cloudy,180,2013-12-04 03:35:00
9:55 PM,68.0,64.4,88,29.83,10.0,South,6.9,-,N/A,,Scattered Clouds,180,2013-12-04 03:55:00
10:15 PM,68.0,66.2,94,29.84,10.0,South,4.6,-,N/A,,Mostly Cloudy,170,2013-12-04 04:15:00
10:35 PM,68.0,66.2,94,29.83,7.0,South,8.1,-,N/A,,Overcast,180,2013-12-04 04:35:00
10:55 PM,69.8,66.2,88,29.83,10.0,South,5.8,-,N/A,,Overcast,180,2013-12-04 04:55:00
11:15 PM,69.8,66.2,88,29.84,7.0,South,4.6,-,N/A,,Overcast,170,2013-12-04 05:15:00
11:35 PM,69.8,66.2,88,29.84,7.0,South,5.8,-,N/A,,Overcast,180,2013-12-04 05:35:00
11:55 PM,69.8,66.2,88,29.84,7.0,South,4.6,-,N/A,,Overcast,170,2013-12-04 05:55:00